Powrót do katalogu

SL-6 DEB

AktywnyHEO
NORAD 13911·DEBRIS·🇷🇺 Russia

Wystrzelony Sep 11, 1981 z Plesetsk Cosmodrome

Loading…

Następne Przeloty (najbliższe 24 godziny)

TLE

NieaktualneSource: Space-Track

Epoka: Aug 16, 2026, 11:43 UTC

1 13911U 81088L   26228.48868799  .00000121  00000-0  20240-3 0  9994
2 13911  63.0274 143.8463 4614759 222.2819  91.1657  5.99178443117390

Śledź SL-6 DEB w czasie rzeczywistym z AllMySat

Download on the App Store